Memphis, TN

10:30 PM CDT on July 27, 2016 (GMT -0500)
Memphis International

Weather History for KMEM - September, 2012

Change the Weather History Date:

Saturday, September 8, 2012

  Actual Average Record
Temperature  
Mean Temperature 71 °F 78 °F  
Max Temperature 78 °F 88 °F 101 °F (1925)
Min Temperature 64 °F 68 °F 54 °F (1943)
Degree Days  
Heating Degree Days 0 0  
Month to date heating degree days 0 0  
Since 1 July heating degree days 0 0  
Cooling Degree Days 6 13  
Month to date cooling degree days 147 112  
Year to date cooling degree days 2384 1947  
Growing Degree Days 22 (Base 50)    
Moisture  
Dew Point 61 °F    
Average Humidity 67    
Maximum Humidity 93    
Minimum Humidity 40    
Precipitation  
Precipitation 0.13 in 0.10 in 1.75 in (1920)
Month to date precipitation 4.34 0.72  
Year to date precipitation 23.94 36.10  
Snow  
Snow 0.00 in 0.00 in - ()
Month to date snowfall 0.0 0.0  
Since 1 July snowfall 0.0 0.0  
Since 1 September snowfall 0.0 0.0  
Snow Depth 0.00 in    
Sea Level Pressure  
Sea Level Pressure 29.93 in    
Wind  
Wind Speed 10 mph (NNW)    
Max Wind Speed 22 mph    
Max Gust Speed 29 mph    
Visibility 8 miles    
Events Rain , Thunderstorm    
T = Trace of Precipitation, MM = Missing Value Source: NWS Daily Summary

Daily Weather History Graph

Daily Weather History Graph

Search for Another Location

Airport or City:

Trip Planner

Search our weather history database for the weather conditions in past years. The results will help you decide how hot, cold, wet, or windy it might be!

Date:

Astronomy

Sep. 08, 2012 Rise Set
Actual Time 6:38 AM CDT 7:16 PM CDT
Civil Twilight 6:12 AM CDT 7:41 PM CDT
Nautical Twilight 5:42 AM CDT 8:11 PM CDT
Astronomical Twilight 5:11 AM CDT 8:42 PM CDT
Moon No Moon Rise 2:03 PM CDT (9/8)
Length of Visible Light 13h 29m
Length of Day
12h 38m
Waning Gibbous, 48% of the Moon is Illuminated
Sep 8
Waning Gibbous
Sep 15
New
Sep 22
First Quarter
Sep 29
Full
Oct 8
Last Quarter

Hourly Weather History & Observations

Time (CDT) Temp. Dew Point Humidity Pressure Visibility Wind Dir Wind Speed Gust Speed Precip Events Conditions
12:32 AM 71.6 °F 69.8 °F 94% 29.91 in 3.0 mi WNW 10.4 mph - 0.14 in Rain , Thunderstorm Heavy Thunderstorms and Rain
12:54 AM 72.0 °F 70.0 °F 93% 29.87 in 3.0 mi Calm Calm - 0.36 in Rain , Thunderstorm Heavy Thunderstorms and Rain
1:20 AM 73.4 °F 69.8 °F 88% 29.85 in 8.0 mi ESE 5.8 mph - 0.08 in Rain Rain
1:54 AM 73.0 °F 70.0 °F 90% 29.82 in 8.0 mi SSW 6.9 mph - 0.11 in Rain Light Rain
2:46 AM 71.6 °F 69.8 °F 94% 29.83 in 3.0 mi WNW 6.9 mph - 0.01 in   Overcast
2:54 AM 72.0 °F 70.0 °F 93% 29.82 in 3.0 mi WNW 8.1 mph - 0.01 in   Overcast
3:54 AM 72.0 °F 70.0 °F 93% 29.83 in 6.0 mi West 5.8 mph - N/A   Overcast
4:11 AM 71.6 °F 69.8 °F 94% 29.84 in 8.0 mi WNW 9.2 mph - N/A   Overcast
4:54 AM 71.1 °F 69.1 °F 93% 29.83 in 4.0 mi NNW 19.6 mph 25.3 mph 0.00 in Rain Rain
5:50 AM 69.8 °F 66.2 °F 88% 29.87 in 6.0 mi North 12.7 mph - 0.03 in Rain Light Rain
5:54 AM 69.1 °F 66.0 °F 90% 29.86 in 6.0 mi North 12.7 mph 18.4 mph 0.03 in Rain Light Rain
6:54 AM 69.1 °F 66.0 °F 90% 29.89 in 7.0 mi North 9.2 mph - 0.00 in   Overcast
7:18 AM 69.8 °F 66.2 °F 88% 29.91 in 7.0 mi North 8.1 mph - N/A   Overcast
7:54 AM 69.1 °F 64.9 °F 87% 29.92 in 9.0 mi North 11.5 mph - N/A   Overcast
8:20 AM 68.0 °F 64.4 °F 88% 29.93 in 10.0 mi North 17.3 mph 21.9 mph N/A   Overcast
8:54 AM 68.0 °F 61.0 °F 78% 29.95 in 10.0 mi North 15.0 mph 25.3 mph N/A   Mostly Cloudy
9:41 AM 71.6 °F 59.0 °F 64% 29.97 in 10.0 mi NNE 15.0 mph 25.3 mph N/A   Mostly Cloudy
9:50 AM 71.6 °F 59.0 °F 64% 29.97 in 10.0 mi North 18.4 mph 23.0 mph N/A   Scattered Clouds
9:54 AM 70.0 °F 57.9 °F 65% 29.96 in 10.0 mi North 15.0 mph 23.0 mph N/A   Scattered Clouds
10:54 AM 73.9 °F 55.9 °F 53% 29.97 in 10.0 mi North 18.4 mph 24.2 mph N/A   Scattered Clouds
11:54 AM 75.0 °F 55.0 °F 50% 29.97 in 10.0 mi North 16.1 mph 26.5 mph N/A   Scattered Clouds
12:54 PM 75.9 °F 53.1 °F 45% 29.98 in 10.0 mi North 16.1 mph - N/A   Partly Cloudy
1:54 PM 77.0 °F 53.1 °F 43% 29.97 in 10.0 mi North 16.1 mph 25.3 mph N/A   Partly Cloudy
2:54 PM 78.1 °F 53.1 °F 42% 29.95 in 10.0 mi North 15.0 mph 19.6 mph N/A   Scattered Clouds
3:54 PM 75.9 °F 53.1 °F 45% 29.95 in 10.0 mi North 15.0 mph 18.4 mph N/A   Partly Cloudy
4:54 PM 77.0 °F 52.0 °F 42% 29.94 in 10.0 mi North 13.8 mph 19.6 mph N/A   Partly Cloudy
5:54 PM 75.9 °F 52.0 °F 43% 29.95 in 10.0 mi NNW 11.5 mph 18.4 mph N/A   Partly Cloudy
6:54 PM 73.9 °F 52.0 °F 46% 29.96 in 10.0 mi NNW 8.1 mph 18.4 mph N/A   Partly Cloudy
7:54 PM 71.1 °F 53.1 °F 53% 29.98 in 10.0 mi North 6.9 mph - N/A   Partly Cloudy
8:54 PM 70.0 °F 54.0 °F 57% 30.00 in 10.0 mi North 3.5 mph - N/A   Partly Cloudy
9:54 PM 69.8 °F 53.6 °F 56% 30.02 in 10.0 mi NNW 3.5 mph - N/A   Partly Cloudy
10:54 PM 66.9 °F 55.0 °F 66% 30.01 in 10.0 mi Calm Calm - N/A   Clear
11:54 PM 66.0 °F 55.9 °F 70% 30.02 in 10.0 mi Calm Calm - N/A   Clear